• In Czech Republic
  • List of Countries
  • For 7 days
  • Water Temperature
  • Satellite Maps
  • Weather Map
  • Weather Widgets
  • user-avatar
    Login

    Hourly Weather Duchan

    Today, 24 October, Tuesday

    Time Temperature Precipitation Wind Pressure Humidity
    00:00 +29°C° 0 mm 3 mps 755 mmHg 48%
    01:00 +29°C° 0 mm 3 mps 755 mmHg 49%
    02:00 +28°C° 0 mm 2 mps 755 mmHg 50%
    03:00 +28°C° 0 mm 2 mps 755 mmHg 51%
    04:00 +27°C° 0 mm 1 mps 756 mmHg 51%
    05:00 +27°C° 0 mm 1 mps 756 mmHg 51%
    06:00 +26°C° 0 mm 1 mps 756 mmHg 51%
    07:00 +29°C° 0 mm 1 mps 757 mmHg 44%
    08:00 +31°C° 0 mm 1 mps 757 mmHg 38%
    09:00 +33°C° 0 mm 1 mps 757 mmHg 31%
    10:00 +35°C° 0 mm 2 mps 757 mmHg 28%
    11:00 +36°C° 0 mm 2 mps 757 mmHg 25%
    12:00 +37°C° 0 mm 2 mps 757 mmHg 22%
    13:00 +38°C° 0 mm 3 mps 757 mmHg 22%
    14:00 +38°C° 0 mm 3 mps 756 mmHg 21%
    15:00 +38°C° 0 mm 4 mps 756 mmHg 20%
    16:00 +36°C° 0 mm 4 mps 756 mmHg 26%
    17:00 +35°C° 0 mm 4 mps 756 mmHg 31%
    18:00 +33°C° 0 mm 4 mps 757 mmHg 36%
    19:00 +32°C° 0 mm 4 mps 757 mmHg 39%
    20:00 +31°C° 0 mm 3 mps 757 mmHg 43%
    21:00 +30°C° 0 mm 3 mps 757 mmHg 47%
    22:00 +30°C° 0 mm 3 mps 757 mmHg 47%
    23:00 +29°C° 0 mm 3 mps 757 mmHg 48%

    Tomorrow, 25 October, Wednesday

    Time Temperature Precipitation Wind Pressure Humidity
    00:00 +29°C° 0 mm 2 mps 757 mmHg 49%
    01:00 +28°C° 0 mm 2 mps 757 mmHg 49%
    02:00 +28°C° 0 mm 2 mps 757 mmHg 49%
    03:00 +27°C° 0 mm 2 mps 757 mmHg 49%
    04:00 +27°C° 0 mm 1 mps 757 mmHg 49%
    05:00 +27°C° 0 mm 1 mps 758 mmHg 50%
    06:00 +26°C° 0 mm 1 mps 758 mmHg 51%
    07:00 +28°C° 0 mm 1 mps 758 mmHg 45%
    08:00 +29°C° 0 mm 0 mps 759 mmHg 39%
    09:00 +31°C° 0 mm 0 mps 759 mmHg 33%
    10:00 +34°C° 0 mm 1 mps 759 mmHg 30%
    11:00 +36°C° 0 mm 2 mps 758 mmHg 26%
    12:00 +37°C° 0 mm 2 mps 758 mmHg 22%
    13:00 +37°C° 0 mm 3 mps 758 mmHg 22%
    14:00 +37°C° 0 mm 4 mps 757 mmHg 21%
    15:00 +37°C° 0 mm 4 mps 757 mmHg 21%
    16:00 +36°C° 0 mm 4 mps 757 mmHg 27%
    17:00 +34°C° 0 mm 4 mps 757 mmHg 33%
    18:00 +33°C° 0 mm 4 mps 757 mmHg 39%
    19:00 +31°C° 0 mm 3 mps 758 mmHg 43%
    20:00 +30°C° 0 mm 3 mps 758 mmHg 46%
    21:00 +30°C° 0 mm 2 mps 759 mmHg 49%
    22:00 +29°C° 0 mm 2 mps 758 mmHg 51%
    23:00 +28°C° 0 mm 1 mps 758 mmHg 53%

    Day after tomorrow, 26 October, Thursday

    Time Temperature Precipitation Wind Pressure Humidity
    00:00 +27°C° 0 mm 1 mps 758 mmHg 55%
    01:00 +27°C° 0 mm 1 mps 757 mmHg 54%
    02:00 +27°C° 0 mm 1 mps 757 mmHg 53%
    03:00 +26°C° 0 mm 1 mps 757 mmHg 52%
    04:00 +26°C° 0 mm 1 mps 757 mmHg 53%
    05:00 +26°C° 0 mm 1 mps 757 mmHg 53%
    06:00 +26°C° 0 mm 1 mps 758 mmHg 54%
    07:00 +28°C° 0 mm 1 mps 758 mmHg 48%
    08:00 +30°C° 0 mm 1 mps 758 mmHg 42%
    09:00 +32°C° 0 mm 1 mps 759 mmHg 36%
    10:00 +33°C° 0 mm 1 mps 758 mmHg 32%
    11:00 +34°C° 0 mm 1 mps 758 mmHg 29%
    12:00 +36°C° 0 mm 2 mps 757 mmHg 26%
    13:00 +37°C° 0 mm 2 mps 757 mmHg 26%
    14:00 +37°C° 0 mm 3 mps 757 mmHg 25%
    15:00 +37°C° 0 mm 4 mps 756 mmHg 25%
    16:00 +36°C° 0 mm 4 mps 756 mmHg 31%
    17:00 +34°C° 0 mm 4 mps 756 mmHg 37%
    18:00 +33°C° 0 mm 4 mps 757 mmHg 43%
    19:00 +31°C° 0 mm 3 mps 757 mmHg 46%
    20:00 +30°C° 0 mm 3 mps 757 mmHg 48%
    21:00 +30°C° 0 mm 3 mps 757 mmHg 51%
    22:00 +29°C° 0 mm 2 mps 757 mmHg 52%
    23:00 +28°C° 0 mm 2 mps 757 mmHg 53%

    27 October, Friday

    Time Temperature Precipitation Wind Pressure Humidity
    00:00 +27°C° 0 mm 1 mps 756 mmHg 55%
    01:00 +27°C° 0 mm 1 mps 756 mmHg 55%
    02:00 +26°C° 0 mm 1 mps 756 mmHg 55%
    03:00 +24°C° 0 mm 0 mps 756 mmHg 55%
    04:00 +24°C° 0 mm 0 mps 756 mmHg 55%
    05:00 +23°C° 0 mm 0 mps 757 mmHg 55%
    06:00 +23°C° 0 mm 0 mps 757 mmHg 55%
    07:00 +26°C° 0 mm 0 mps 757 mmHg 49%
    08:00 +28°C° 0 mm 0 mps 758 mmHg 42%
    09:00 +30°C° 0 mm 0 mps 758 mmHg 35%
    10:00 +33°C° 0 mm 1 mps 757 mmHg 32%
    11:00 +34°C° 0 mm 1 mps 757 mmHg 29%
    12:00 +35°C° 0 mm 1 mps 756 mmHg 26%
    13:00 +36°C° 0 mm 1 mps 756 mmHg 26%
    14:00 +37°C° 0 mm 2 mps 755 mmHg 25%
    15:00 +37°C° 0 mm 2 mps 755 mmHg 25%
    16:00 +36°C° 0 mm 3 mps 755 mmHg 30%
    17:00 +34°C° 0 mm 3 mps 755 mmHg 35%
    18:00 +33°C° 0 mm 3 mps 755 mmHg 39%
    19:00 +33°C° 0 mm 3 mps 756 mmHg 42%
    20:00 +31°C° 0 mm 3 mps 756 mmHg 44%
    21:00 +31°C° 0 mm 3 mps 756 mmHg 46%
    22:00 +30°C° 0 mm 3 mps 756 mmHg 47%
    23:00 +30°C° 0 mm 3 mps 756 mmHg 47%

    28 October, Saturday

    Time Temperature Precipitation Wind Pressure Humidity
    00:00 +29°C° 0 mm 3 mps 756 mmHg 48%
    01:00 +29°C° 0 mm 2 mps 756 mmHg 48%
    02:00 +28°C° 0 mm 2 mps 756 mmHg 49%
    03:00 +28°C° 0 mm 2 mps 755 mmHg 49%
    04:00 +28°C° 0 mm 1 mps 756 mmHg 49%
    05:00 +27°C° 0 mm 1 mps 756 mmHg 50%
    06:00 +27°C° 0 mm 1 mps 757 mmHg 50%
    07:00 +29°C° 0 mm 1 mps 757 mmHg 44%
    08:00 +31°C° 0 mm 1 mps 757 mmHg 38%
    09:00 +34°C° 0 mm 1 mps 758 mmHg 32%
    10:00 +35°C° 0 mm 1 mps 757 mmHg 28%
    11:00 +37°C° 0 mm 2 mps 757 mmHg 25%
    12:00 +38°C° 0 mm 2 mps 756 mmHg 22%
    13:00 +38°C° 0 mm 2 mps 756 mmHg 21%
    14:00 +38°C° 0 mm 3 mps 755 mmHg 21%
    15:00 +39°C° 0 mm 3 mps 755 mmHg 20%
    16:00 +37°C° 0 mm 4 mps 755 mmHg 25%
    17:00 +36°C° 0 mm 4 mps 756 mmHg 30%
    18:00 +34°C° 0 mm 5 mps 756 mmHg 35%
    19:00 +33°C° 0 mm 5 mps 756 mmHg 37%
    20:00 +33°C° 0 mm 5 mps 756 mmHg 40%
    21:00 +32°C° 0 mm 5 mps 757 mmHg 43%
    22:00 +32°C° 0 mm 4 mps 757 mmHg 42%
    23:00 +32°C° 0 mm 4 mps 756 mmHg 42%

    29 October, Sunday

    Time Temperature Precipitation Wind Pressure Humidity
    00:00 +30°C° 0 mm 3 mps 756 mmHg 41%
    01:00 +30°C° 0 mm 3 mps 756 mmHg 42%
    02:00 +29°C° 0 mm 3 mps 756 mmHg 43%
    03:00 +29°C° 0 mm 2 mps 756 mmHg 44%
    04:00 +28°C° 0 mm 2 mps 757 mmHg 46%
    05:00 +28°C° 0 mm 2 mps 757 mmHg 48%
    06:00 +28°C° 0 mm 2 mps 757 mmHg 51%
    07:00 +30°C° 0 mm 2 mps 757 mmHg 45%
    08:00 +32°C° 0 mm 2 mps 758 mmHg 40%
    09:00 +35°C° 0 mm 2 mps 758 mmHg 35%
    10:00 +36°C° 0 mm 2 mps 757 mmHg 31%
    11:00 +37°C° 0 mm 2 mps 757 mmHg 27%
    12:00 +38°C° 0 mm 2 mps 756 mmHg 23%
    13:00 +38°C° 0 mm 2 mps 756 mmHg 21%
    14:00 +39°C° 0 mm 2 mps 756 mmHg 20%
    15:00 +39°C° 0 mm 2 mps 755 mmHg 18%
    16:00 +37°C° 0 mm 3 mps 756 mmHg 22%
    17:00 +36°C° 0 mm 3 mps 756 mmHg 25%
    18:00 +35°C° 0 mm 3 mps 756 mmHg 28%
    19:00 +34°C° 0 mm 3 mps 756 mmHg 33%
    20:00 +33°C° 0 mm 4 mps 757 mmHg 37%
    21:00 +32°C° 0 mm 4 mps 757 mmHg 42%
    22:00 +31°C° 0 mm 3 mps 757 mmHg 42%
    23:00 +30°C° 0 mm 3 mps 757 mmHg 43%

    30 October, Monday

    Time Temperature Precipitation Wind Pressure Humidity
    00:00 +30°C° 0 mm 2 mps 757 mmHg 43%
    01:00 +29°C° 0 mm 2 mps 757 mmHg 44%
    02:00 +29°C° 0 mm 2 mps 757 mmHg 46%
    03:00 +28°C° 0 mm 1 mps 757 mmHg 47%
    04:00 +28°C° 0 mm 2 mps 757 mmHg 46%
    05:00 +28°C° 0 mm 2 mps 757 mmHg 46%
    06:00 +28°C° 0 mm 2 mps 758 mmHg 45%
    07:00 +30°C° 0 mm 2 mps 758 mmHg 40%
    08:00 +33°C° 0 mm 3 mps 758 mmHg 35%
    09:00 +34°C° 0 mm 3 mps 759 mmHg 29%
    10:00 +36°C° 0 mm 3 mps 758 mmHg 26%
    11:00 +37°C° 0 mm 2 mps 758 mmHg 23%
    12:00 +38°C° 0 mm 2 mps 757 mmHg 20%
    13:00 +38°C° 0 mm 2 mps 757 mmHg 18%
    14:00 +38°C° 0 mm 3 mps 757 mmHg 17%
    15:00 +39°C° 0 mm 3 mps 756 mmHg 15%
    16:00 +37°C° 0 mm 3 mps 757 mmHg 18%
    17:00 +35°C° 0 mm 3 mps 757 mmHg 20%
    18:00 +34°C° 0 mm 2 mps 757 mmHg 23%
    19:00 +32°C° 0 mm 2 mps 757 mmHg 28%
    20:00 +31°C° 0 mm 3 mps 757 mmHg 33%
    21:00 +30°C° 0 mm 3 mps 757 mmHg 38%
    22:00 +29°C° 0 mm 2 mps 757 mmHg 41%
    23:00 +29°C° 0 mm 2 mps 757 mmHg 45%
    Show more